H1 CPF 2 NER 2021 7 7 9 188 01 glonass138 H2 1805301 9138 43508 2021 7 7 0 0 0 2021 7 10 23 45 0 900 1 1 0 0 0 1 H9 10 0 59402 0.00000 0 -1082198.951 -12523343.856 22212428.288 10 0 59402 900.00000 0 1370905.741 -11215231.664 22883980.080 10 0 59402 1800.00000 0 3964577.548 -10069319.526 23111819.220 10 0 59402 2700.00000 0 6636206.238 -9117256.980 22891457.372 10 0 59402 3600.00000 0 9318575.095 -8379229.866 22227080.104 10 0 59402 4500.00000 0 11942426.669 -7863218.960 21131473.124 10 0 59402 5400.00000 0 14439124.463 -7564785.388 19625783.902 10 0 59402 6300.00000 0 16743301.302 -7467391.970 17739122.334 10 0 59402 7200.00000 0 18795385.041 -7543247.242 15508007.161 10 0 59402 8100.00000 0 20543897.087 -7754636.970 12975667.702 10 0 59402 9000.00000 0 21947428.081 -8055687.478 10191213.340 10 0 59402 9900.00000 0 22976208.064 -8394486.727 7208686.055 10 0 59402 10800.00000 0 23613205.172 -8715473.638 4086013.758 10 0 59402 11700.00000 0 23854706.337 -8961994.455 883884.496 10 0 59402 12600.00000 0 23710355.192 -9078917.453 -2335436.385 10 0 59402 13500.00000 0 23202645.271 -9015194.411 -5509322.700 10 0 59402 14400.00000 0 22365889.698 -8726259.186 -8576013.074 10 0 59402 15300.00000 0 21244710.832 -8176160.475 -11475820.974 10 0 59402 16200.00000 0 19892113.867 -7339336.945 -14152304.568 10 0 59402 17100.00000 0 18367226.036 -6201958.103 -16553372.786 10 0 59402 18000.00000 0 16732797.310 -4762772.790 -18632305.156 10 0 59402 18900.00000 0 15052568.483 -3033428.136 -20348665.109 10 0 59402 19800.00000 0 13388617.915 -1038244.282 -21669088.693 10 0 59402 20700.00000 0 11798798.896 1186546.620 -22567933.301 10 0 59402 21600.00000 0 10334375.396 3594066.073 -23027774.048 10 0 59402 22500.00000 0 9037955.231 6128507.275 -23039738.549 10 0 59402 23400.00000 0 7941806.878 8727234.163 -22603674.039 10 0 59402 24300.00000 0 7066629.687 11323174.298 -21728144.134 10 0 59402 25200.00000 0 6420827.953 13847406.179 -20430255.772 10 0 59402 26100.00000 0 6000318.021 16231833.464 -18735320.117 10 0 59402 27000.00000 0 5788875.077 18411835.048 -16676354.355 10 0 59402 27900.00000 0 5759003.577 20328781.078 -14293434.294 10 0 59402 28800.00000 0 5873293.294 21932310.466 -11632910.613 10 0 59402 29700.00000 0 6086202.566 23182275.596 -8746504.135 10 0 59402 30600.00000 0 6346192.423 24050273.854 -5690297.867 10 0 59402 31500.00000 0 6598120.636 24520702.811 -2523645.666 10 0 59402 32400.00000 0 6785793.852 24591296.010 691981.111 10 0 59402 33300.00000 0 6854569.500 24273117.943 3894186.403 10 0 59402 34200.00000 0 6753897.194 23590019.507 7020858.323 10 0 59402 35100.00000 0 6439692.059 22577577.695 10011370.655 10 0 59402 36000.00000 0 5876439.652 21281564.785 12807753.784 10 0 59402 36900.00000 0 5038943.520 19756011.726 15355812.593 10 0 59402 37800.00000 0 3913641.543 18060947.140 17606170.122 10 0 59402 38700.00000 0 2499435.224 16259906.545 19515217.462 10 0 59402 39600.00000 0 807996.475 14417315.686 21045952.139 10 0 59402 40500.00000 0 -1136461.935 12595856.757 22168689.612 10 0 59402 41400.00000 0 -3297943.935 10853926.648 22861634.839 10 0 59402 42300.00000 0 -5629925.525 9243292.508 23111303.439 10 0 59402 43200.00000 0 -8077057.362 7807041.404 22912784.658 10 0 59402 44100.00000 0 -10577245.449 6577908.770 22269841.131 10 0 59402 45000.00000 0 -13064025.083 5577054.699 21194843.196 10 0 59402 45900.00000 0 -15469130.976 4813338.609 19708538.477 10 0 59402 46800.00000 0 -17725158.015 4283122.269 17839660.250 10 0 59402 47700.00000 0 -19768202.912 3970609.320 15624381.176 10 0 59402 48600.00000 0 -21540377.347 3848707.039 13105621.824 10 0 59402 49500.00000 0 -22992088.034 3880374.198 10332226.264 10 0 59402 50400.00000 0 -24083988.252 4020398.377 7358019.901 10 0 59402 51300.00000 0 -24788518.807 4217527.683 4240767.194 10 0 59402 52200.00000 0 -25090973.217 4416866.612 1041049.187 10 0 59402 53100.00000 0 -24990041.681 4562434.185 -2178917.104 10 0 59402 54000.00000 0 -24497810.395 4599775.287 -5356494.113 10 0 59402 54900.00000 0 -23639215.706 4478513.516 -8429849.549 10 0 59402 55800.00000 0 -22450975.848 4154736.118 -11339167.789 10 0 59402 56700.00000 0 -20980045.227 3593108.572 -14027822.276 10 0 59402 57600.00000 0 -19281656.538 2768627.797 -16443485.205 10 0 59402 58500.00000 0 -17417033.550 1667938.422 -18539152.026 10 0 59402 59400.00000 0 -15450871.227 290155.140 -20274060.328 10 0 59402 60300.00000 0 -13448689.524 -1352844.799 -21614484.949 10 0 59402 61200.00000 0 -11474172.377 -3236672.282 -22534393.784 10 0 59402 62100.00000 0 -9586603.579 -5325210.604 -23015951.794 10 0 59402 63000.00000 0 -7838506.855 -7571901.184 -23049863.800 10 0 59402 63900.00000 0 -6273588.555 -9921477.382 -22635549.862 10 0 59402 64800.00000 0 -4925068.241 -12312074.422 -21781150.380 10 0 59402 65700.00000 0 -3814465.942 -14677627.657 -20503361.290 10 0 59402 66600.00000 0 -2950895.522 -16950459.297 -18827102.974 10 0 59402 67500.00000 0 -2330892.159 -19063946.007 -16785029.683 10 0 59402 68400.00000 0 -1938779.501 -20955156.349 -14416889.211 10 0 59402 69300.00000 0 -1747559.393 -22567348.321 -11768745.528 10 0 59402 70200.00000 0 -1720285.153 -23852223.104 -8892079.642 10 0 59402 71100.00000 0 -1811859.043 -24771841.407 -5842786.284 10 0 59402 72000.00000 0 -1971176.963 -25300122.828 -2680086.196 10 0 59402 72900.00000 0 -2143528.779 -25423866.228 534624.699 10 0 59402 73800.00000 0 -2273152.154 -25143249.150 3738966.723 10 0 59402 74700.00000 0 -2305831.444 -24471786.159 6870785.119 10 0 59402 75600.00000 0 -2191431.520 -23435748.592 9869352.495 10 0 59402 76500.00000 0 -1886259.277 -22073070.670 12676541.862 10 0 59402 77400.00000 0 -1355153.066 -20431788.254 15237947.658 10 0 59402 78300.00000 0 -573211.772 -18568075.824 17503933.580 10 0 59402 79200.00000 0 472909.509 -16543963.688 19430587.525 10 0 59402 80100.00000 0 1784192.126 -14424830.529 20980565.846 10 0 59402 81000.00000 0 3348969.454 -12276775.309 22123811.405 10 0 59402 81900.00000 0 5143178.372 -10163977.273 22838132.281 10 0 59402 82800.00000 0 7131137.372 -8146153.149 23109630.499 10 0 59402 83700.00000 0 9266820.376 -6276216.345 22932972.896 10 0 59402 84600.00000 0 11495574.866 -4598234.573 22311498.930 10 0 59402 85500.00000 0 13756214.419 -3145770.108 21257163.092 10 0 59403 0.00000 0 15983400.174 -1940670.979 19790312.494 10 0 59403 900.00000 0 18110213.571 -992363.125 17939302.786 10 0 59403 1800.00000 0 20070814.224 -297672.152 15739959.457 10 0 59403 2700.00000 0 21803072.597 158817.011 13234892.938 10 0 59403 3600.00000 0 23251068.507 403879.115 10472680.351 10 0 59403 4500.00000 0 24367350.211 474282.351 7506928.623 10 0 59403 5400.00000 0 25114859.433 414995.077 4395236.572 10 0 59403 6300.00000 0 25468440.757 277041.343 1198075.810 10 0 59403 7200.00000 0 25415871.141 115096.326 -2022387.627 10 0 59403 8100.00000 0 24958365.384 -15075.804 -5203507.570 10 0 59403 9000.00000 0 24110535.474 -59232.148 -8283383.629 10 0 59403 9900.00000 0 22899804.883 32802.296 -11202073.847 10 0 59403 10800.00000 0 21365302.112 304760.861 -13902769.545 10 0 59403 11700.00000 0 19556279.870 791836.197 -16332908.591 10 0 59403 12600.00000 0 17530126.518 1518946.236 -18445204.526 10 0 59403 13500.00000 0 15350053.572 2499439.729 -20198571.020 10 0 59403 14400.00000 0 13082556.642 3734297.203 -21558923.381 10 0 59403 15300.00000 0 10794756.618 5211862.032 -22499841.435 10 0 59403 16200.00000 0 8551732.575 6908113.791 -23003081.139 10 0 59403 17100.00000 0 6413957.899 8787473.146 -23058925.367 10 0 59403 18000.00000 0 4434946.532 10804105.002 -22666367.508 10 0 59403 18900.00000 0 2659206.943 12903665.758 -21833124.861 10 0 59403 19800.00000 0 1120588.289 15025421.902 -20575482.045 10 0 59403 20700.00000 0 -158913.397 17104651.497 -18917967.913 10 0 59403 21600.00000 0 -1169840.679 19075228.452 -16892872.573 10 0 59403 22500.00000 0 -1915424.937 20872281.715 -14539614.157 10 0 59403 23400.00000 0 -2411196.806 22434818.402 -11903967.868 10 0 59403 24300.00000 0 -2684075.087 23708201.397 -9037172.447 10 0 59403 25200.00000 0 -2770974.153 24646378.083 -5994931.576 10 0 59403 26100.00000 0 -2716990.015 25213767.197 -2836329.832 10 0 59403 27000.00000 0 -2573242.865 25386725.259 377315.525 10 0 59403 27900.00000 0 -2394468.193 25154531.605 3583644.534 10 0 59403 28800.00000 0 -2236458.947 24519851.258 6720462.906 10 0 59403 29700.00000 0 -2153467.305 23498656.755 9726945.349 10 0 59403 30600.00000 0 -2195676.085 22119612.633 12544810.598 10 0 59403 31500.00000 0 -2406846.666 20422948.670 15119445.543 10 0 59403 32400.00000 0 -2822242.691 18458869.092 17400957.154 10 0 59403 33300.00000 0 -3466917.155 16285564.138 19345132.454 10 0 59403 34200.00000 0 -4354435.141 13966906.596 20914288.601 10 0 59403 35100.00000 0 -5486086.303 11569928.721 22077997.475 10 0 59403 36000.00000 0 -6850620.852 9162183.739 22813671.484 10 0 59403 36900.00000 0 -8424521.082 6809100.740 23106999.824 10 0 59403 37800.00000 0 -10172798.350 4571441.822 22952227.191 10 0 59403 38700.00000 0 -12050283.768 2502966.022 22352269.605 10 0 59403 39600.00000 0 -14003360.275 648396.163 21318664.881 10 0 59403 40500.00000 0 -15972065.503 -958227.771 19871358.128 10 0 59403 41400.00000 0 -17892479.198 -2294740.969 18038325.567 10 0 59403 42300.00000 0 -19699296.738 -3351542.591 15855042.921 10 0 59403 43200.00000 0 -21328482.203 -4131752.755 13363807.548 10 0 59403 44100.00000 0 -22719890.496 -4650831.396 10612926.310 10 0 59403 45000.00000 0 -23819748.777 -4935675.185 7655784.100 10 0 59403 45900.00000 0 -24582892.773 -5023230.746 4549810.418 10 0 59403 46800.00000 0 -24974663.398 -4958682.929 1355363.733 10 0 59403 47700.00000 0 -24972382.947 -4793295.061 -1865444.520 10 0 59403 48600.00000 0 -24566347.700 -4581993.183 -5049963.050 10 0 59403 49500.00000 0 -23760294.051 -4380797.388 -8136226.635 10 0 59403 50400.00000 0 -22571317.575 -4244210.092 -11064170.008 10 0 59403 51300.00000 0 -21029247.682 -4222673.086 -13776805.101 10 0 59403 52200.00000 0 -19175503.653 -4360202.383 -16221337.830 10 0 59403 53100.00000 0 -17061479.943 -4692302.188 -18350201.776 10 0 59403 54000.00000 0 -14746528.515 -5244247.472 -20121988.142 10 0 59403 54900.00000 0 -12295622.937 -6029808.772 -21502253.589 10 0 59403 55800.00000 0 -9776802.313 -7050473.910 -22464190.145 10 0 59403 56700.00000 0 -7258502.064 -8295200.184 -22989144.416 10 0 59403 57600.00000 0 -4806883.021 -9740708.046 -23066976.383 10 0 59403 58500.00000 0 -2483270.151 -11352304.336 -22696251.281 10 0 59403 59400.00000 0 -341807.159 -13085200.826 -21884261.366 10 0 59403 60300.00000 0 1572576.073 -14886273.031 -20646877.637 10 0 59403 61200.00000 0 3225799.547 -16696185.685 -19008234.828 10 0 59403 62100.00000 0 4595805.903 -18451795.963 -17000256.126 10 0 59403 63000.00000 0 5673222.596 -20088733.892 -14662027.099 10 0 59403 63900.00000 0 6461487.545 -21544051.904 -12039031.223 10 0 59403 64800.00000 0 6976434.977 -22758832.625 -9182262.031 10 0 59403 65700.00000 0 7245360.707 -23680645.741 -6147229.262 10 0 59403 66600.00000 0 7305607.881 -24265751.044 -2992878.562 10 0 59403 67500.00000 0 7202734.300 -24480955.514 219554.109 10 0 59403 68400.00000 0 6988339.875 -24305046.764 3427730.954 10 0 59403 69300.00000 0 6717646.869 -23729743.001 6569420.400 10 0 59403 70200.00000 0 6446935.758 -22760119.929 9583701.269 10 0 59403 71100.00000 0 6230945.411 -21414496.930 12412139.802 10 0 59403 72000.00000 0 6120347.486 -19723787.394 14999916.864 10 0 59403 72900.00000 0 6159401.601 -17730340.357 17296883.950 10 0 59403 73800.00000 0 6383890.073 -15486321.553 19258528.161 10 0 59403 74700.00000 0 6819419.135 -13051701.036 20846828.111 10 0 59403 75600.00000 0 7480158.178 -10491930.473 22030985.025 10 0 59403 76500.00000 0 8368070.303 -7875405.836 22788015.644 10 0 59403 77400.00000 0 9472667.045 -5270819.932 23103196.044 10 0 59403 78300.00000 0 10771298.450 -2744513.526 22970348.205 10 0 59403 79200.00000 0 12229967.573 -357933.782 22391963.894 10 0 59403 80100.00000 0 13804636.682 1834695.562 21379163.219 10 0 59403 81000.00000 0 15442972.058 3788396.571 19951488.127 10 0 59403 81900.00000 0 17086455.936 5469068.883 18136533.976 10 0 59403 82800.00000 0 18672778.499 6854663.538 15969425.282 10 0 59403 83700.00000 0 20138410.869 7935850.452 13492144.695 10 0 59403 84600.00000 0 21421251.953 8716152.034 10752727.051 10 0 59403 85500.00000 0 22463238.280 9211537.521 7804333.287 10 0 59404 0.00000 0 23212807.104 9449495.385 4704221.571 10 0 59404 900.00000 0 23627108.228 9467623.123 1512634.878 10 0 59404 1800.00000 0 23673871.507 9311794.270 -1708372.230 10 0 59404 2700.00000 0 23332848.403 9033980.674 -4896145.726 10 0 59404 3600.00000 0 22596767.602 8689822.884 -7988657.938 10 0 59404 4500.00000 0 21471761.742 8336052.396 -10925722.581 10 0 59404 5400.00000 0 19977246.861 8027876.022 -13650174.339 10 0 59404 6300.00000 0 18145258.553 7816434.287 -16108989.128 10 0 59404 7200.00000 0 16019272.188 7746442.561 -18254322.324 10 0 59404 8100.00000 0 13652556.370 7854115.831 -20044444.220 10 0 59404 9000.00000 0 11106128.475 8165465.727 -21444554.204 10 0 59404 9900.00000 0 8446397.905 8695042.479 -22427457.716 10 0 59404 10800.00000 0 5742595.553 9445175.430 -22974093.043 10 0 59404 11700.00000 0 3064096.744 10405744.504 -23073898.105 10 0 59404 12600.00000 0 477749.138 11554492.445 -22725010.550 10 0 59404 13500.00000 0 -1954683.477 12857864.840 -21934297.849 10 0 59404 14400.00000 0 -4178855.757 14272342.652 -20717217.256 10 0 59404 15300.00000 0 -6149857.380 15746211.270 -19097508.851 10 0 59404 16200.00000 0 -7833828.903 17221691.773 -17106727.936 10 0 59404 17100.00000 0 -9209111.036 18637344.916 -14783626.132 10 0 59404 18000.00000 0 -10266880.980 19930646.838 -12173393.418 10 0 59404 18900.00000 0 -11011251.103 21040628.346 -9326775.999 10 0 59404 19800.00000 0 -11458827.735 21910466.943 -6299087.261 10 0 59404 20700.00000 0 -11637750.356 22489922.684 -3149131.266 10 0 59404 21600.00000 0 -11586253.323 22737515.631 61940.147 10 0 59404 22500.00000 0 -11350812.126 22622353.452 3271814.298 10 0 59404 23400.00000 0 -10983953.506 22125532.500 6418225.348 10 0 59404 24300.00000 0 -10541822.658 21241053.634 9440159.275 10 0 59404 25200.00000 0 -10081610.728 19976214.344 12279032.823 10 0 59404 26100.00000 0 -9658951.412 18351460.732 14879823.738 10 0 59404 27000.00000 0 -9325396.434 16399705.317 17192130.794 10 0 59404 27900.00000 0 -9126076.194 14165138.770 19171143.725 10 0 59404 28800.00000 0 -9097643.821 11701584.637 20778504.895 10 0 59404 29700.00000 0 -9266588.946 9070464.764 21983046.865 10 0 59404 30600.00000 0 -9647991.998 6338459.020 22761392.339 10 0 59404 31500.00000 0 -10244771.474 3574955.478 23098405.469 10 0 59404 32400.00000 0 -11047456.199 849395.571 22987486.244 10 0 59404 33300.00000 0 -12034492.887 -1771376.981 22430702.373 10 0 59404 34200.00000 0 -13173077.107 -4225654.662 21438755.890 10 0 59404 35100.00000 0 -14420474.077 -6459187.947 20030784.628 10 0 59404 36000.00000 0 -15725775.251 -8427194.921 18234001.541 10 0 59404 36900.00000 0 -17032018.323 -10095975.873 16083177.844 10 0 59404 37800.00000 0 -18278582.823 -11444066.194 13619978.893 10 0 59404 38700.00000 0 -19403761.525 -12462879.858 10892164.489 10 0 59404 39600.00000 0 -20347399.972 -13156816.748 7952668.279 10 0 59404 40500.00000 0 -21053493.059 -13542829.573 4858573.415 10 0 59404 41400.00000 0 -21472628.826 -13649468.780 1670003.968 10 0 59404 42300.00000 0 -21564175.597 -13515445.953 -1551046.193 10 0 59404 43200.00000 0 -21298119.050 -13187776.783 -4741923.965 10 0 59404 44100.00000 0 -20656470.378 -12719582.688 -7840542.769 10 0 59404 45000.00000 0 -19634184.717 -12167644.828 -10786598.673 10 0 59404 45900.00000 0 -18239549.809 -11589814.986 -13522752.257 10 0 59404 46800.00000 0 -16494027.283 -11042393.901 -15995752.269 10 0 59404 47700.00000 0 -14431552.336 -10577589.012 -18157478.317 10 0 59404 48600.00000 0 -12097320.513 -10241160.100 -19965881.734 10 0 59404 49500.00000 0 -9546111.956 -10070353.132 -21385806.023 10 0 59404 50400.00000 0 -6840223.072 -10092210.149 -22389670.781 10 0 59404 51300.00000 0 -4047091.896 -10322326.918 -22958006.067 10 0 59404 52200.00000 0 -1236716.053 -10764110.863 -23079827.183 10 0 59404 53100.00000 0 1521029.133 -11408570.527 -22752843.043 10 0 59404 54000.00000 0 4159061.107 -12234645.281 -21983494.656 10 0 59404 54900.00000 0 6615638.520 -13210061.147 -20786823.444 10 0 59404 55800.00000 0 8836682.254 -14292676.471 -19186172.397 10 0 59404 56700.00000 0 10777773.500 -15432260.563 -17212726.224 10 0 59404 57600.00000 0 12405746.913 -16572630.257 -14904899.674 10 0 59404 58500.00000 0 13699813.831 -17654054.265 -12307586.130 10 0 59404 59400.00000 0 14652170.349 -18615824.036 -9471281.251 10 0 59404 60300.00000 0 15268066.580 -19398882.777 -6451098.765 10 0 59404 61200.00000 0 15565335.953 -19948401.881 -3305697.824 10 0 59404 62100.00000 0 15573406.033 -20216196.277 -96142.869 10 0 59404 63000.00000 0 15331834.018 -20162876.963 3115281.678 10 0 59404 63900.00000 0 14888429.859 -19759650.158 6266278.645 10 0 59404 64800.00000 0 14297047.100 -18989687.326 9295743.795 10 0 59404 65700.00000 0 13615135.264 -17849008.423 12144946.661 10 0 59404 66600.00000 0 12901157.321 -16346841.105 14758663.736 10 0 59404 67500.00000 0 12211981.138 -14505440.495 17086242.522 10 0 59404 68400.00000 0 11600354.621 -12359376.542 19082576.390 10 0 59404 69300.00000 0 11112570.442 -9954318.030 20708972.021 10 0 59404 70200.00000 0 10786418.168 -7345363.032 21933893.442 10 0 59404 71100.00000 0 10649509.426 -4594984.107 22733569.049 10 0 59404 72000.00000 0 10718046.190 -1770672.450 23092450.435 10 0 59404 72900.00000 0 10996083.837 1057622.643 23003514.619 10 0 59404 73800.00000 0 11475320.133 3820154.235 22468403.984 10 0 59404 74700.00000 0 12135419.545 6450029.088 21497400.981 10 0 59404 75600.00000 0 12944860.059 8885741.221 20109237.624 10 0 59404 76500.00000 0 13862268.008 11073483.587 18330742.597 10 0 59404 77400.00000 0 14838185.899 12969142.571 16196331.839 10 0 59404 78300.00000 0 15817199.996 14539892.922 13747351.320 10 0 59404 79200.00000 0 16740339.011 15765326.983 11031283.635 10 0 59404 80100.00000 0 17547643.419 16638071.168 8100832.892 10 0 59404 81000.00000 0 18180797.269 17163863.992 5012904.973 10 0 59404 81900.00000 0 18585711.168 17361092.474 1827502.557 10 0 59404 82800.00000 0 18714946.690 17259806.502 -1393443.485 10 0 59404 83700.00000 0 18529878.762 16900253.014 -4587283.286 10 0 59404 84600.00000 0 18002503.332 16330992.284 -7691873.569 10 0 59404 85500.00000 0 17116812.518 15606676.513 -10646794.798 10 0 59405 0.00000 0 15869677.767 14785585.400 -13394535.226 10 0 59405 900.00000 0 14271201.869 13927023.976 -15881618.139 10 0 59405 1800.00000 0 12344525.086 13088693.013 -18059648.708 10 0 59405 2700.00000 0 10125090.489 12324145.182 -19886260.469 10 0 59405 3600.00000 0 7659400.478 11680433.726 -21325942.036 10 0 59405 4500.00000 0 5003314.883 11196054.419 -22350728.016 10 0 59405 5400.00000 0 2219961.875 10899267.383 -22940740.948 10 0 59405 6300.00000 0 -622651.536 10806869.604 -23084574.054 10 0 59405 7200.00000 0 -3454229.948 10923469.591 -22779507.843 10 0 59405 8100.00000 0 -6204873.430 11241294.268 -22031556.922 10 0 59405 9000.00000 0 -8807743.570 11740535.692 -20855346.600 10 0 59405 9900.00000 0 -11201601.301 12390222.360 -19273822.126 10 0 59405 10800.00000 0 -13333111.744 13149577.848 -17317796.591 10 0 59405 11700.00000 0 -15158821.165 13969809.000 -15025346.486 10 0 59405 12600.00000 0 -16646724.764 14796247.859 -12441066.903 10 0 59405 13500.00000 0 -17777361.374 15570756.692 -9615200.987 10 0 59405 14400.00000 0 -18544390.840 16234294.436 -6602660.656 10 0 59405 15300.00000 0 -18954631.478 16729536.099 -3461957.839 10 0 59405 16200.00000 0 -19027557.706 17003434.503 -254067.145 10 0 59405 17100.00000 0 -18794280.438 17009616.217 2958757.798 10 0 59405 18000.00000 0 -18296054.453 16710510.573 6114191.100 10 0 59405 18900.00000 0 -17582376.658 16079121.970 9151041.000 10 0 59405 19800.00000 0 -16708756.129 15100370.681 12010432.539 10 0 59405 20700.00000 0 -15734250.303 13771945.573 14636943.688 10 0 59405 21600.00000 0 -14718871.191 12104632.544 16979673.337 10 0 59405 22500.00000 0 -13720970.620 10122104.303 18993221.029 10 0 59405 23400.00000 0 -12794714.060 7860179.576 20638560.093 10 0 59405 24300.00000 0 -11987748.611 5365581.595 21883788.096 10 0 59405 25200.00000 0 -11339162.438 2694246.380 22704740.847 10 0 59405 26100.00000 0 -10877820.691 -90750.157 23085458.706 10 0 59405 27000.00000 0 -10621147.250 -2921561.719 23018496.613 10 0 59405 27900.00000 0 -10574403.125 -5728140.974 22505072.025 10 0 59405 28800.00000 0 -10730491.834 -8440903.608 21555047.705 10 0 59405 29700.00000 0 -11070300.224 -10993377.949 20186749.216 10 0 59405 30600.00000 0 -11563561.007 -13324731.421 18426619.824 10 0 59405 31500.00000 0 -12170201.502 -15382069.636 16308718.535 10 0 59405 32400.00000 0 -12842122.668 -17122413.182 13874069.826 10 0 59405 33300.00000 0 -13525334.268 -18514270.063 11169876.576 10 0 59405 34200.00000 0 -14162356.688 -19538738.183 8248610.518 10 0 59405 35100.00000 0 -14694788.309 -20190091.743 5166997.187 10 0 59405 36000.00000 0 -15065929.852 -20475826.892 1984914.617 10 0 59405 36900.00000 0 -15223354.201 -20416164.574 -1235772.679 10 0 59405 37800.00000 0 -15121312.148 -20043031.593 -4432421.477 10 0 59405 38700.00000 0 -14722871.009 -19398563.053 -7542835.208 10 0 59405 39600.00000 0 -14001694.280 -18533189.764 -10506482.095 10 0 59405 40500.00000 0 -12943385.535 -17503391.985 -13265681.412 10 0 59405 41400.00000 0 -11546338.277 -16369215.106 -15766733.839 10 0 59405 42300.00000 0 -9822054.516 -15191653.011 -17960972.966 10 0 59405 43200.00000 0 -7794917.362 -14030010.346 -19805716.941 10 0 59405 44100.00000 0 -5501426.161 -12939355.632 -21265101.390 10 0 59405 45000.00000 0 -2988925.461 -11968173.063 -22310777.287 10 0 59405 45900.00000 0 -313880.382 -11156312.089 -22922460.398 10 0 59405 46800.00000 0 2460230.034 -10533320.979 -23088322.010 10 0 59405 47700.00000 0 5265313.916 -10117234.116 -22805213.791 10 0 59405 48600.00000 0 8031262.415 -9913863.365 -22078722.997 10 0 59405 49500.00000 0 10688632.664 -9916622.494 -20923057.413 10 0 59405 50400.00000 0 13171306.564 -10106891.091 -19360762.744 10 0 59405 51300.00000 0 15419015.406 -10454901.695 -17422278.292 10 0 59405 52200.00000 0 17379626.012 -10921111.846 -15145339.782 10 0 59405 53100.00000 0 19011093.989 -11458002.397 -12574241.181 10 0 59405 54000.00000 0 20283003.807 -12012225.552 -9758969.986 10 0 59405 54900.00000 0 21177632.618 -12527011.423 -6754232.895 10 0 59405 55800.00000 0 21690494.665 -12944731.078 -3618391.009 10 0 59405 56700.00000 0 21830344.905 -13209507.539 -412325.388 10 0 59405 57600.00000 0 21618643.102 -13269764.223 2801744.830 10 0 59405 58500.00000 0 21088502.157 -13080603.099 5961468.595 10 0 59405 59400.00000 0 20283165.989 -12605912.042 9005569.906 10 0 59405 60300.00000 0 19254081.837 -11820112.361 11875032.222 10 0 59405 61200.00000 0 18058648.598 -10709472.675 14514237.445 10 0 59405 62100.00000 0 16757736.113 -9272933.529 16872037.807 10 0 59405 63000.00000 0 15413079.563 -7522407.507 18902740.461 10 0 59405 63900.00000 0 14084658.016 -5482541.581 20566986.309 10 0 59405 64800.00000 0 12828166.546 -3189950.550 21832506.888 10 0 59405 65700.00000 0 11692687.110 -691952.301 22674745.392 10 0 59405 66600.00000 0 10718655.040 1955143.822 23077330.479 10 0 59405 67500.00000 0 9936205.494 4688125.993 23032394.133 10 0 59405 68400.00000 0 9363968.536 7439261.088 22540727.643 10 0 59405 69300.00000 0 9008362.884 10138870.818 21611772.502 10 0 59405 70200.00000 0 8863417.789 12717997.366 20263445.953 10 0 59405 71100.00000 0 8911130.584 15111049.196 18521803.742 10 0 59405 72000.00000 0 9122345.260 17258317.973 16420545.637 10 0 59405 72900.00000 0 9458115.564 19108262.594 14000372.165 10 0 59405 73800.00000 0 9871495.749 20619465.535 11308203.908 10 0 59405 74700.00000 0 10309683.906 21762179.816 8396277.559 10 0 59405 75600.00000 0 10716427.608 22519401.772 5321135.579 10 0 59405 76500.00000 0 11034590.118 22887424.395 2142528.620 10 0 59405 77400.00000 0 11208768.209 22875847.661 -1077747.860 10 0 59405 78300.00000 0 11187849.999 22507045.253 -4277059.879 10 0 59405 79200.00000 0 10927403.393 21815110.023 -7393159.996 10 0 59405 80100.00000 0 10391792.695 20844322.807 -10365406.378 10 0 59405 81000.00000 0 9555932.287 19647209.531 -13135951.175 10 0 59405 81900.00000 0 8406601.681 18282269.096 -15650874.163 10 0 59405 82800.00000 0 6943264.898 16811468.527 -17861238.631 10 0 59405 83700.00000 0 5178358.248 15297611.705 -19724048.381 10 0 59405 84600.00000 0 3137033.126 13801693.081 -21203086.895 10 0 59405 85500.00000 0 856363.689 12380348.307 -22269622.138 99